SCP
0 0 0 0 0 0 0 0 0 0 0 0 0 0 0 0 0 0 0 0 0 1 1 0 0 0 0 0 0 0 0 0
0 0 0 0 0 0 0 0 0 0 0 0 0 0 0 0 0 0 0 0 0 1 1 1 1 1 1 0 0 0 0 0
0 0 0 0 0 0 0 0 0 0 0 0 0 0 0 0 0 0 0 0 0 2 1 1 1 1 1 1 1 1 0 0
0 0 0 0 0 0 0 0 0 0 0 0 0 0 0 0 0 0 0 0 0 1 1 1 1 1 1 1 1 1 1 1
0 0 0 0 0 0 0 0 0 0 0 0 0 0 0 0 0 0 0 0 0 1 1 2 2 1 1 1 2 2 2 1
0 0 0 0 0 0 0 0 0 0 0 0 0 0 0 0 0 0 0 0 0 1 1 1 1 1 2 2 2 2 2 1
0 0 0 0 0 0 0 0 0 0 0 0 0 0 0 0 0 0 0 0 0 0 0 1 1 1 2 1 2 2 1 1
0 0 0 0 0 0 0 0 0 0 0 0 0 0 0 0 0 0 0 0 0 0 0 1 0 1 1 1 0 1 1 0
0 0 0 0 0 0 0 0 0 0 0 0 0 0 0 0 0 0 0 0 0 1 1 1 1 1 1 1 1 1 1 1
0 0 0 0 0 0 0 0 0 0 0 0 0 0 0 0 0 0 0 0 0 1 1 1 1 1 1 0 0 0 0 1
0 0 0 0 0 0 0 0 0 0 0 0 0 0 0 0 0 0 0 0 0 1 2 2 1 1 0 0 0 0 0 1
0 0 0 0 0 0 0 0 0 0 0 0 0 0 0 0 0 0 0 0 0 1 1 1 1 1 1 1 0 0 0 1
0 0 0 0 0 0 0 0 0 0 0 0 0 0 0 0 0 0 0 0 0 0 1 1 1 1 1 1 1 0 0 1
0 0 0 0 0 0 0 0 0 0 0 0 0 0 0 0 0 0 0 0 0 0 1 1 1 1 1 1 0 0 1 1
0 0 0 0 0 0 0 0 0 0 0 0 0 0 0 0 0 0 0 0 0 0 0 1 1 1 1 1 1 1 1 1
0 0 0 0 0 0 0 0 0 0 0 0 0 0 -0 0 0 0 0 0 0 0 0 1 1 1 1 0 1 1 1 1
0 0 0 0 0 0 0 0 0 0 0 -0 -0 -0 0 0 0 0 0 0 0 0 1 1 1 1 0 0 1 1 0 0
0 0 0 0 0 0 0 0 0 0 0 -0 0 0 0 0 0 0 0 0 0 0 0 0 0 0 0 1 0 0 0 0
0 0 0 0 0 0 0 0 0 0 -0 -0 0 0 0 0 0 0 0 0 0 0 0 0 0 1 1 1 1 0 0 0
0 0 0 0 0 0 0 0 0 0 -0 0 0 0 0 0 0 0 0 0 0 0 0 0 0 0 0 0 0 1 0 0
Wind_Speed_500mb
9 18 21 8 19 9 4 6 7 9 10 6 7 9 7 11 21 27 28 24 26 31 31 32 27 24 21 16 13 12 15 18
18 23 18 17 14 4 12 11 6 7 12 7 13 4 8 14 24 27 27 28 28 38 34 33 30 25 23 20 17 17 19 21
24 29 22 16 23 15 17 7 8 5 5 8 4 11 22 16 25 29 32 33 31 37 38 36 34 33 31 29 24 23 24 25
25 30 18 22 24 23 25 16 6 10 13 7 9 16 11 14 27 27 32 32 34 35 38 39 37 37 36 36 33 29 28 27
30 26 22 26 15 22 27 14 11 11 17 4 6 16 25 16 25 32 33 38 35 34 39 41 43 42 42 41 38 34 32 31
27 29 28 9 18 9 16 11 9 10 13 11 17 28 26 17 23 35 38 40 42 38 40 45 51 55 49 45 39 36 35 34
39 29 24 12 18 7 6 22 24 26 29 21 19 26 24 22 25 36 42 45 45 42 42 45 46 47 52 47 42 40 37 36
40 28 29 18 20 18 21 27 38 40 29 26 26 33 34 30 32 40 49 47 48 48 46 42 40 40 42 38 35 32 28 27
49 44 30 35 42 37 38 31 45 41 39 44 46 46 43 40 38 40 49 48 51 57 54 49 41 38 34 32 30 30 35 33
57 60 46 39 52 49 45 47 60 57 45 56 61 51 50 51 48 45 43 51 54 56 63 55 42 41 37 34 31 30 26 32
63 67 52 52 57 64 63 58 63 59 54 55 57 62 65 59 55 49 43 49 55 55 63 63 60 42 43 39 32 28 26 28
65 63 55 49 59 66 63 63 65 60 57 57 58 61 66 67 60 53 41 46 53 61 65 65 60 60 50 46 34 33 26 27
50 61 54 57 53 56 55 64 60 53 51 58 61 64 60 58 58 51 41 40 58 58 63 66 61 58 50 39 42 27 26 33
48 45 55 39 63 46 49 54 50 47 54 62 66 63 57 51 51 48 45 50 53 49 63 68 63 56 47 37 34 26 26 26
51 46 39 39 61 43 41 43 39 51 58 60 61 58 50 44 44 41 45 50 45 46 60 62 61 50 45 39 34 25 24 24
53 41 31 53 57 41 46 54 52 54 58 63 62 57 47 44 39 36 40 37 33 44 54 57 53 48 35 27 25 23 22 24
47 36 44 49 49 46 43 50 57 59 60 65 56 49 39 38 31 27 27 28 35 45 53 50 45 36 28 24 21 19 21 24
49 44 48 42 53 52 46 48 58 58 53 53 44 37 30 28 20 19 20 27 37 44 47 49 36 29 23 19 17 18 19 21
60 43 44 44 55 58 50 63 48 43 56 62 43 39 25 15 14 18 23 30 38 43 50 44 31 26 22 15 16 15 16 15
50 44 48 43 49 50 43 39 42 54 54 43 30 20 14 17 18 21 27 34 42 45 47 40 32 20 18 13 13 14 13 16
Wind_Direction_500mb
230 236 251 222 178 147 216 255 255 238 255 291 257 237 251 243 206 191 187 188 193 189 191 203 204 205 213 223 249 280 300 310
245 236 239 265 165 170 260 180 228 279 250 225 256 259 223 241 215 204 194 195 199 196 194 200 208 213 219 233 256 280 298 310
238 249 252 234 263 283 258 255 252 218 254 274 320 275 277 255 222 211 196 197 206 198 201 205 213 220 227 235 249 267 284 303
243 241 224 247 256 252 245 227 208 217 264 245 355 356 320 258 217 209 203 205 206 205 208 215 222 226 233 238 245 259 270 288
265 273 256 254 265 233 231 226 198 309 258 265 6 349 337 310 229 217 212 214 214 213 213 219 225 232 236 241 246 258 269 282
252 258 259 236 210 215 224 252 309 265 260 271 334 327 320 290 249 224 218 218 218 218 219 221 226 229 236 243 249 261 270 281
248 255 257 191 234 190 252 277 288 269 274 286 294 310 312 290 256 238 223 221 220 217 215 219 221 231 234 240 248 257 265 279
248 261 267 285 263 283 271 268 276 276 260 271 294 299 293 285 273 248 238 227 220 217 214 212 213 219 234 234 243 253 257 261
247 249 261 284 277 280 275 270 274 294 297 284 286 287 284 277 279 264 251 237 227 224 221 217 213 215 219 226 238 247 261 268
255 254 251 266 281 282 269 276 280 290 289 290 292 286 281 275 276 276 257 236 226 222 224 224 212 216 219 224 236 249 258 273
251 265 264 262 268 269 274 280 277 285 290 284 283 282 278 272 270 273 254 231 225 220 224 228 222 219 221 230 241 247 255 266
257 253 258 258 265 270 271 275 280 283 286 285 286 282 276 269 267 267 265 229 222 225 224 229 228 228 234 240 240 253 255 259
247 253 255 261 262 260 266 270 274 283 286 288 288 283 276 270 262 267 261 235 230 229 226 228 225 229 232 233 245 245 256 263
233 227 240 242 261 263 269 269 278 278 289 294 289 282 277 266 269 265 259 254 242 227 226 223 221 224 227 230 245 246 255 256
242 232 243 222 259 256 263 270 272 286 293 294 288 284 278 275 269 264 257 243 241 222 218 218 217 217 223 234 247 248 252 256
257 230 214 245 250 254 258 269 277 286 291 289 285 281 285 280 273 262 251 241 227 213 208 208 207 210 217 226 241 247 252 257
242 243 252 260 260 260 263 273 279 289 288 289 282 281 279 275 276 254 232 206 202 200 197 188 195 196 210 228 240 248 256 259
253 242 250 249 267 268 262 271 279 276 281 280 288 283 274 268 254 230 202 190 188 186 190 189 187 190 204 215 236 245 255 254
251 261 248 259 266 268 264 259 271 264 267 278 273 279 264 227 203 184 179 180 179 180 184 183 182 195 215 228 247 267 266 258
256 254 251 246 269 265 274 273 262 268 271 258 257 251 213 185 167 167 164 161 162 170 178 188 195 192 196 219 244 239 233 243
Wind_Speed_850mb
9 18 21 8 19 9 4 6 7 9 10 6 7 9 7 11 21 27 28 24 26 31 31 32 27 24 21 16 13 12 15 18
18 23 18 17 14 4 12 11 6 7 12 7 13 4 8 14 24 27 27 28 28 38 34 33 30 25 23 20 17 17 19 21
24 29 22 16 23 15 17 7 8 5 5 8 4 11 22 16 25 29 32 33 31 37 38 36 34 33 31 29 24 23 24 25
25 30 18 22 24 23 25 16 6 10 13 7 9 16 11 14 27 27 32 32 34 35 38 39 37 37 36 36 33 29 28 27
30 26 22 26 15 22 27 14 11 11 17 4 6 16 25 16 25 32 33 38 35 34 39 41 43 42 42 41 38 34 32 31
27 29 28 9 18 9 16 11 9 10 13 11 17 28 26 17 23 35 38 40 42 38 40 45 51 55 49 45 39 36 35 34
39 29 24 12 18 7 6 22 24 26 29 21 19 26 24 22 25 36 42 45 45 42 42 45 46 47 52 47 42 40 37 36
40 28 29 18 20 18 21 27 38 40 29 26 26 33 34 30 32 40 49 47 48 48 46 42 40 40 42 38 35 32 28 27
49 44 30 35 42 37 38 31 45 41 39 44 46 46 43 40 38 40 49 48 51 57 54 49 41 38 34 32 30 30 35 33
57 60 46 39 52 49 45 47 60 57 45 56 61 51 50 51 48 45 43 51 54 56 63 55 42 41 37 34 31 30 26 32
63 67 52 52 57 64 63 58 63 59 54 55 57 62 65 59 55 49 43 49 55 55 63 63 60 42 43 39 32 28 26 28
65 63 55 49 59 66 63 63 65 60 57 57 58 61 66 67 60 53 41 46 53 61 65 65 60 60 50 46 34 33 26 27
50 61 54 57 53 56 55 64 60 53 51 58 61 64 60 58 58 51 41 40 58 58 63 66 61 58 50 39 42 27 26 33
48 45 55 39 63 46 49 54 50 47 54 62 66 63 57 51 51 48 45 50 53 49 63 68 63 56 47 37 34 26 26 26
51 46 39 39 61 43 41 43 39 51 58 60 61 58 50 44 44 41 45 50 45 46 60 62 61 50 45 39 34 25 24 24
53 41 31 53 57 41 46 54 52 54 58 63 62 57 47 44 39 36 40 37 33 44 54 57 53 48 35 27 25 23 22 24
47 36 44 49 49 46 43 50 57 59 60 65 56 49 39 38 31 27 27 28 35 45 53 50 45 36 28 24 21 19 21 24
49 44 48 42 53 52 46 48 58 58 53 53 44 37 30 28 20 19 20 27 37 44 47 49 36 29 23 19 17 18 19 21
60 43 44 44 55 58 50 63 48 43 56 62 43 39 25 15 14 18 23 30 38 43 50 44 31 26 22 15 16 15 16 15
50 44 48 43 49 50 43 39 42 54 54 43 30 20 14 17 18 21 27 34 42 45 47 40 32 20 18 13 13 14 13 16
Wind_Direction_850mb
230 236 251 222 178 147 216 255 255 238 255 291 257 237 251 243 206 191 187 188 193 189 191 203 204 205 213 223 249 280 300 310
245 236 239 265 165 170 260 180 228 279 250 225 256 259 223 241 215 204 194 195 199 196 194 200 208 213 219 233 256 280 298 310
238 249 252 234 263 283 258 255 252 218 254 274 320 275 277 255 222 211 196 197 206 198 201 205 213 220 227 235 249 267 284 303
243 241 224 247 256 252 245 227 208 217 264 245 355 356 320 258 217 209 203 205 206 205 208 215 222 226 233 238 245 259 270 288
265 273 256 254 265 233 231 226 198 309 258 265 6 349 337 310 229 217 212 214 214 213 213 219 225 232 236 241 246 258 269 282
252 258 259 236 210 215 224 252 309 265 260 271 334 327 320 290 249 224 218 218 218 218 219 221 226 229 236 243 249 261 270 281
248 255 257 191 234 190 252 277 288 269 274 286 294 310 312 290 256 238 223 221 220 217 215 219 221 231 234 240 248 257 265 279
248 261 267 285 263 283 271 268 276 276 260 271 294 299 293 285 273 248 238 227 220 217 214 212 213 219 234 234 243 253 257 261
247 249 261 284 277 280 275 270 274 294 297 284 286 287 284 277 279 264 251 237 227 224 221 217 213 215 219 226 238 247 261 268
255 254 251 266 281 282 269 276 280 290 289 290 292 286 281 275 276 276 257 236 226 222 224 224 212 216 219 224 236 249 258 273
251 265 264 262 268 269 274 280 277 285 290 284 283 282 278 272 270 273 254 231 225 220 224 228 222 219 221 230 241 247 255 266
257 253 258 258 265 270 271 275 280 283 286 285 286 282 276 269 267 267 265 229 222 225 224 229 228 228 234 240 240 253 255 259
247 253 255 261 262 260 266 270 274 283 286 288 288 283 276 270 262 267 261 235 230 229 226 228 225 229 232 233 245 245 256 263
233 227 240 242 261 263 269 269 278 278 289 294 289 282 277 266 269 265 259 254 242 227 226 223 221 224 227 230 245 246 255 256
242 232 243 222 259 256 263 270 272 286 293 294 288 284 278 275 269 264 257 243 241 222 218 218 217 217 223 234 247 248 252 256
257 230 214 245 250 254 258 269 277 286 291 289 285 281 285 280 273 262 251 241 227 213 208 208 207 210 217 226 241 247 252 257
242 243 252 260 260 260 263 273 279 289 288 289 282 281 279 275 276 254 232 206 202 200 197 188 195 196 210 228 240 248 256 259
253 242 250 249 267 268 262 271 279 276 281 280 288 283 274 268 254 230 202 190 188 186 190 189 187 190 204 215 236 245 255 254
251 261 248 259 266 268 264 259 271 264 267 278 273 279 264 227 203 184 179 180 179 180 184 183 182 195 215 228 247 267 266 258
256 254 251 246 269 265 274 273 262 268 271 258 257 251 213 185 167 167 164 161 162 170 178 188 195 192 196 219 244 239 233 243